Weather History for Newcastle, WY

Change the Weather History Date:

Friday, May 24, 2013

  Actual Average (KCUT) Record (KCUT)
Temperature  
Mean Temperature 66 °F 51 °F  
Max Temperature 78 °F 62 °F 81 °F (1967)
Min Temperature 55 °F 39 °F 22 °F (1966)
Degree Days  
Heating Degree Days 0 14  
Month to date heating degree days 425  
Since 1 July heating degree days 8075  
Cooling Degree Days 2 0  
Month to date cooling degree days 0  
Year to date cooling degree days 0  
Growing Degree Days 16 (Base 50)    
Moisture  
Dew Point 39 °F    
Average Humidity 44    
Maximum Humidity 77    
Minimum Humidity 9    
Precipitation  
Precipitation 0.00 in 0.12 in 1.00 in (1965)
Month to date precipitation 2.36  
Year to date precipitation 6.35  
Sea Level Pressure  
Sea Level Pressure 29.93 in    
Wind  
Wind Speed 21 mph (SE)    
Max Wind Speed 34 mph    
Max Gust Speed 46 mph    
Visibility 10 miles    
Events      
T = Trace of Precipitation, MM = Missing Value Source: NWS Daily Summary

Daily Weather History Graph

Daily Weather History Graph

Search for Another Location

Airport:

Trip Planner

Search our weather history database for the weather conditions in past years. The results will help you decide how hot, cold, wet, or windy it might be!

Date:

Astronomy

May. 24, 2013 Rise Set
Actual Time 5:22 AM MDT 8:26 PM MDT
Civil Twilight 4:48 AM MDT 9:00 PM MDT
Nautical Twilight 4:04 AM MDT 9:44 PM MDT
Astronomical Twilight 3:11 AM MDT 10:37 PM MDT
Moon 8:09 PM MDT (5/24) 4:58 AM MDT (5/24)
Length of Visible Light 16h 12m
Length of Day
15h 03m
Full, 100% of the Moon is Illuminated
May 24
Full
May 24
Full
May 31
Last Quarter
Jun 8
New
Jun 16
First Quarter

Hourly Weather History & Observations

Time (MDT) Temp. Dew Point Humidity Pressure Visibility Wind Dir Wind Speed Gust Speed Precip Events Conditions
12:15 AM 57.2 °F 44.6 °F 63% 29.95 in 10.0 mi ESE 31.1 mph 40.3 mph N/A   Mostly Cloudy
12:35 AM 57.2 °F 44.6 °F 63% 29.94 in 10.0 mi ESE 27.6 mph 40.3 mph N/A   Overcast
12:55 AM 57.2 °F 44.6 °F 63% 29.93 in 10.0 mi ESE 34.5 mph 42.6 mph N/A   Overcast
1:15 AM 55.4 °F 44.6 °F 67% 29.91 in 10.0 mi ESE 33.4 mph 46.0 mph N/A   Mostly Cloudy
1:35 AM 55.4 °F 44.6 °F 67% 29.91 in 10.0 mi ESE 33.4 mph 42.6 mph N/A   Mostly Cloudy
1:55 AM 55.4 °F 44.6 °F 67% 29.91 in 10.0 mi ESE 28.8 mph 35.7 mph N/A   Overcast
2:15 AM 55.4 °F 44.6 °F 67% 29.91 in 10.0 mi ESE 28.8 mph 38.0 mph N/A   Overcast
2:35 AM 55.4 °F 44.6 °F 67% 29.91 in 10.0 mi ESE 27.6 mph 38.0 mph N/A   Overcast
2:55 AM 55.4 °F 44.6 °F 67% 29.89 in 10.0 mi ESE 27.6 mph 35.7 mph N/A   Overcast
3:15 AM 55.4 °F 44.6 °F 67% 29.88 in 10.0 mi ESE 27.6 mph 38.0 mph N/A   Overcast
3:35 AM 55.4 °F 44.6 °F 67% 29.87 in 10.0 mi ESE 28.8 mph 39.1 mph N/A   Overcast
3:55 AM 55.4 °F 44.6 °F 67% 29.87 in 10.0 mi ESE 23.0 mph 38.0 mph N/A   Overcast
4:15 AM 55.4 °F 46.4 °F 72% 29.90 in 10.0 mi SE 20.7 mph 31.1 mph N/A   Overcast
4:35 AM 55.4 °F 46.4 °F 72% 29.88 in 10.0 mi ESE 28.8 mph 36.8 mph N/A   Overcast
4:55 AM 55.4 °F 46.4 °F 72% 29.89 in 10.0 mi ESE 25.3 mph 32.2 mph N/A   Overcast
5:15 AM 55.4 °F 46.4 °F 72% 29.89 in 10.0 mi ESE 26.5 mph 29.9 mph N/A   Overcast
5:35 AM 55.4 °F 46.4 °F 72% 29.87 in 10.0 mi ESE 23.0 mph 34.5 mph N/A   Overcast
5:55 AM 55.4 °F 46.4 °F 72% 29.89 in 10.0 mi ESE 19.6 mph 31.1 mph N/A   Overcast
6:15 AM 57.2 °F 46.4 °F 67% 29.91 in 10.0 mi ESE 15.0 mph 25.3 mph N/A   Overcast
6:35 AM 57.2 °F 48.2 °F 72% 29.89 in 10.0 mi ESE 25.3 mph 31.1 mph N/A   Overcast
6:55 AM 55.4 °F 48.2 °F 77% 29.90 in 10.0 mi ESE 17.3 mph 28.8 mph N/A   Scattered Clouds
7:15 AM 57.2 °F 48.2 °F 72% 29.91 in 10.0 mi SE 17.3 mph - N/A   Scattered Clouds
7:35 AM 59.0 °F 50.0 °F 72% 29.91 in 10.0 mi SE 18.4 mph 25.3 mph N/A   Scattered Clouds
7:55 AM 60.8 °F 50.0 °F 68% 29.93 in 10.0 mi ESE 15.0 mph 20.7 mph N/A   Scattered Clouds
8:15 AM 60.8 °F 50.0 °F 68% 29.92 in 10.0 mi SE 17.3 mph 24.2 mph N/A   Scattered Clouds
8:35 AM 60.8 °F 50.0 °F 68% 29.93 in 10.0 mi SE 13.8 mph 23.0 mph N/A   Scattered Clouds
8:55 AM 62.6 °F 50.0 °F 63% 29.92 in 10.0 mi SSE 12.7 mph 18.4 mph N/A   Scattered Clouds
9:15 AM 62.6 °F 48.2 °F 59% 29.93 in 10.0 mi North - - N/A   Clear
9:35 AM 64.4 °F 50.0 °F 59% 29.93 in 10.0 mi South 12.7 mph - N/A   Clear
9:55 AM 66.2 °F 48.2 °F 52% 29.93 in 10.0 mi South 9.2 mph 16.1 mph N/A   Clear
10:15 AM 66.2 °F 48.2 °F 52% 29.93 in 10.0 mi South 8.1 mph - N/A   Clear
10:35 AM 68.0 °F 46.4 °F 46% 29.93 in 10.0 mi South 8.1 mph - N/A   Clear
10:55 AM 68.0 °F 46.4 °F 46% 29.93 in 10.0 mi South 8.1 mph - N/A   Clear
11:15 AM 69.8 °F 44.6 °F 40% 29.93 in 10.0 mi SSW 8.1 mph - N/A   Clear
11:35 AM 71.6 °F 42.8 °F 35% 29.93 in 10.0 mi Calm Calm - N/A   Clear
11:55 AM 73.4 °F 37.4 °F 27% 29.93 in 10.0 mi West 12.7 mph 16.1 mph N/A   Clear
12:15 PM 75.2 °F 35.6 °F 24% 29.92 in 10.0 mi WSW 15.0 mph 19.6 mph N/A   Clear
12:35 PM 75.2 °F 42.8 °F 31% 29.92 in 10.0 mi NW 18.4 mph 26.5 mph N/A   Clear
12:55 PM 73.4 °F 44.6 °F 36% 29.93 in 10.0 mi NW 17.3 mph 24.2 mph N/A   Clear
1:15 PM 73.4 °F 42.8 °F 33% 29.93 in 10.0 mi NNW 8.1 mph 24.2 mph N/A   Clear
1:35 PM 73.4 °F 46.4 °F 38% 29.93 in 10.0 mi NNW 16.1 mph 23.0 mph N/A   Clear
1:55 PM 73.4 °F 44.6 °F 36% 29.94 in 10.0 mi NW 12.7 mph 21.9 mph N/A   Clear
2:15 PM 73.4 °F 44.6 °F 36% 29.94 in 10.0 mi North - - N/A   Clear
2:35 PM 75.2 °F 39.2 °F 27% 29.94 in 10.0 mi North - - N/A   Clear
2:55 PM 77.0 °F 42.8 °F 29% 29.94 in 10.0 mi North - - N/A   Clear
3:15 PM 77.0 °F 39.2 °F 26% 29.94 in 10.0 mi NW 6.9 mph - N/A   Clear
3:35 PM 77.0 °F 37.4 °F 24% 29.94 in 10.0 mi North - - N/A   Clear
3:55 PM 77.0 °F 33.8 °F 21% 29.94 in 10.0 mi SSE 3.5 mph - N/A   Clear
4:15 PM 73.4 °F 35.6 °F 25% 29.94 in 10.0 mi SE 3.5 mph - N/A   Clear
4:35 PM 77.0 °F 39.2 °F 26% 29.94 in 10.0 mi North - - N/A   Clear
4:55 PM 77.0 °F 28.4 °F 17% 29.94 in 10.0 mi South 4.6 mph - N/A   Clear
5:15 PM 78.8 °F 23.0 °F 13% 29.94 in 10.0 mi SW 6.9 mph - N/A   Clear
5:35 PM 77.0 °F 23.0 °F 13% 29.94 in 10.0 mi WSW 9.2 mph - N/A   Clear
5:55 PM 77.0 °F 14.0 °F 9% 29.94 in 10.0 mi SW 8.1 mph - N/A   Clear
6:15 PM 77.0 °F 15.8 °F 10% 29.94 in 10.0 mi SW 11.5 mph 19.6 mph N/A   Clear
6:35 PM 77.0 °F 19.4 °F 12% 29.94 in 10.0 mi SW 8.1 mph - N/A   Clear
6:55 PM 75.2 °F 19.4 °F 12% 29.93 in 10.0 mi West 10.4 mph - N/A   Clear
7:15 PM 73.4 °F 21.2 °F 14% 29.93 in 10.0 mi WSW 5.8 mph - N/A   Clear
7:35 PM 71.6 °F 28.4 °F 20% 29.94 in 10.0 mi Calm Calm - N/A   Clear
7:55 PM 69.8 °F 30.2 °F 23% 29.94 in 10.0 mi ESE 4.6 mph - N/A   Clear
8:15 PM 64.4 °F 30.2 °F 28% 29.95 in 10.0 mi ESE 6.9 mph - N/A   Clear
8:35 PM 62.6 °F 28.4 °F 27% 29.95 in 10.0 mi ESE 8.1 mph - N/A   Clear
8:55 PM 62.6 °F 26.6 °F 26% 29.95 in 10.0 mi East 5.8 mph - N/A   Clear
9:15 PM 62.6 °F 24.8 °F 24% 29.95 in 10.0 mi East 6.9 mph - N/A   Clear
9:35 PM 60.8 °F 24.8 °F 25% 29.96 in 10.0 mi East 9.2 mph - N/A   Clear
9:55 PM 60.8 °F 24.8 °F 25% 29.97 in 10.0 mi East 8.1 mph - N/A   Clear
10:15 PM 60.8 °F 23.0 °F 23% 29.97 in 10.0 mi East 9.2 mph - N/A   Clear
10:35 PM 62.6 °F 33.8 °F 34% 29.96 in 10.0 mi ENE 13.8 mph 17.3 mph N/A   Clear
10:55 PM 62.6 °F 37.4 °F 39% 29.95 in 10.0 mi North - - N/A   Clear
11:15 PM 62.6 °F 37.4 °F 39% 29.95 in 10.0 mi ENE 13.8 mph - N/A   Clear
11:35 PM 62.6 °F 37.4 °F 39% 29.95 in 10.0 mi North - - N/A   Clear
11:55 PM 62.6 °F 39.2 °F 42% 29.95 in 10.0 mi North - - N/A   Clear